Weather Roundup
Issued by NWS

Home | Current Version | Previous Version | Text Only | Print | Product List | Glossary On
Versions: 1 2 3 4 5 6 7 8 9 10 11 12 13 14 15 16 17 18 19 20 21 22 23 24 25 26 27 28 29 30 31 32 33 34 35 36 37 38 39 40 41 42 43 44 45 46 47 48 49 50
936
NZUS93 KARX 271010
HRRWXR

CURRENT HOURLY OBSERVATIONS ACROSS
MUCH OF THE UPPER MISSISSIPPI VALLEY
NATIONAL WEATHER SERVICE LA CROSSE WI
500 AM CDT THU APR 27 2017


...SOUTHEAST MINNESOTA...


CITY           SKY/WX    TMP DP  RH WIND       PRES   REMARKS
ROCHESTER      CLOUDY    34  33  96 NW15      29.48F WCI  24
ROCHESTER/MAYO CLOUDY    35  34  97 NW7G17    29.49F WCI  29
WINONA         CLOUDY    36  32  87 NW14      29.47F WCI  27
AUSTIN         CLOUDY    34  30  86 NW14G20   29.50S WCI  24
ALBERT LEA     LGT SNOW  32  30  93 NW9       29.52S WCI  24
DODGE CENTER   CLOUDY    34  32  93 NW13      29.49F WCI  25
PRESTON        CLOUDY    34  32  92 NW14      29.48S WCI  25
OWATONNA       CLOUDY    34  30  86 NW14      29.52F WCI  24
FARIBAULT      CLOUDY    34  32  93 NW7G16    29.53F WCI  28
$$

...ELSEWHERE IN MINNESOTA...


CITY           SKY/WX    TMP DP  RH WIND       PRES   REMARKS
MINNEAPOLIS    FLURRIES  34  31  88 N8        29.53F WCI  27
INTNL FALLS    CLOUDY    21  13  71 NE10G20   29.64F WCI  10
DULUTH         CLOUDY    23  20  88 N9        29.53F WCI  13
RED WING       CLOUDY    36  28  75 N7        29.50F WCI  30
REDWOOD FALLS  CLOUDY    31  28  89 NW10      29.59S WCI  22
MANKATO        LGT SNOW  32  30  92 NW10      29.55F FOG     WCI  24
WORTHINGTON    CLOUDY    28  26  92 NW16      29.61R WCI  16
FAIRMONT       CLOUDY    31  29  92 NW16      29.58S WCI  20
$$

...SOUTHWEST WISCONSIN...


CITY           SKY/WX    TMP DP  RH WIND       PRES   REMARKS
LA CROSSE      LGT RAIN  39  35  86 NW16      29.45S WCI  30
PRAIRIE DU CHI RAIN      38  36  95 W10G20    29.46S WCI  30
BOSCOBEL       RAIN      41  37  86 NW8       29.44S
LONE ROCK      LGT RAIN  41  38  89 NW10      29.41S FOG
PLATTEVILLE    CLOUDY    40  40 100 W12       29.43R WCI  33
FORT MC COY    LGT RAIN  36  35  96 NW7       29.43F WCI  30
CAMP DOUGLAS   RAIN      37  36  93 NW7       29.41S WCI  32
MAUSTON-NEW LI RAIN      38  37  93 NW12      29.40S WCI  31
VIROQUA        CLOUDY    37  36  97 NW9       29.42R WCI  30
WIS DELLS      RAIN      39  38  96 NW8       29.38F WCI  33
$$

...ELSEWHERE IN WISCONSIN...


CITY           SKY/WX    TMP DP  RH WIND       PRES   REMARKS
MILWAUKEE      LGT RAIN  58  57  97 S9        29.29F FOG
MADISON        RAIN      41  39  93 NW8       29.36F FOG
GREEN BAY      RAIN      47  47 100 N12       29.33F FOG
EAU CLAIRE     CLOUDY    34  27  75 N10       29.47F WCI  26
BLACK RVR FLS  RAIN      35  35 100 N8        29.42F WCI  29
MEDFORD        MIX PCPN  31  28  92 N14       29.41F WCI  20
WAUSAU         RAIN      34  33  96 N10       29.38F WCI  26
WIS RAPIDS     LGT RAIN  37  36  96 N12       29.40R WCI  29
MARSHFIELD     LGT RAIN  34  32  92 N13       29.39F WCI  25
RICE LAKE      CLOUDY    32  28  87 N8        29.52S WCI  25
$$

...NORTHEAST IOWA...


CITY           SKY/WX    TMP DP  RH WIND       PRES   REMARKS
WATERLOO       CLOUDY    37  31  78 W13G21    29.51S WCI  29
DUBUQUE        LGT RAIN  37  36  96 NW12      29.44S FOG     WCI  29
DECORAH        CLOUDY    37  34  87 NW14G21   29.46R WCI  29
MASON CITY     CLOUDY    33  31  92 NW15      29.54F WCI  23
CHARLES CITY   CLOUDY    36  34  93 NW16      29.51S WCI  26
OELWEIN        CLOUDY    37  36  93 NW17G23   29.49S WCI  28
$$

...ELSEWHERE IN IOWA...


CITY           SKY/WX    TMP DP  RH WIND       PRES   REMARKS
DES MOINES     DRIZZLE   37  33  85 NW20      29.58S WCI  27
IOWA CITY      LGT RAIN  38  32  79 NW10      29.51F WCI  31
FORT DODGE     CLOUDY    32  25  74 NW9       29.60S WCI  24
MARSHALLTOWN   CLOUDY    35  32  88 NW17      29.54R WCI  25
CEDAR RAPIDS   LGT RAIN  37  36  96 NW16      29.48F WCI  28
$$

...NORTHERN ILLINOIS...


CITY           SKY/WX    TMP DP  RH WIND       PRES   REMARKS
CHICAGO-OHARE  LGT RAIN  60  55  83 S17G26    29.29F
CHICAGO-MIDWAY CLOUDY    60  57  89 S12       29.31F
MOLINE         LGT RAIN  41  37  86 W18G26    29.47R
ROCKFORD       LGT RAIN  46  43  89 NW18      29.36S FOG
PEORIA         CLOUDY    44  42  93 W13       29.47R
$$

NOTE: "FAIR" INDICATES FEW OR NO CLOUDS BELOW 12,000 FEET WITH NO
SIGNIFICANT WEATHER AND/OR OBSTRUCTIONS TO VISIBILITY. WIND
SPEEDS ARE IN MILES-PER-HOUR.




USA.gov is the U.S. government's official web portal to all federal, state and local government web resources and services.